Location: ?????
(37.7324°N, 23.9257°E)
Time: 14:49:16
(UTC+00:00)

RESURS DK-1 - Visible Passes

Search period start: 20 April 2021 00:00
Search period end: 30 April 2021 00:00
Orbit: 554 x 563 km, 69.9° (Epoch: 19 April)

Date Brightness Start Highest point End Pass type
(mag) Time Alt. Az. Time Alt. Az. Time Alt. Az.
20 Apr 5.0 03:01:28 10° N 03:04:58 26° ENE 03:08:28 10° ESE visible
20 Apr 4.5 18:35:49 10° WSW 18:39:25 29° WNW 18:43:03 10° N visible
21 Apr 4.4 02:59:20 10° N 03:03:09 34° ENE 03:06:56 10° SE visible
21 Apr 5.1 18:34:21 10° WSW 18:37:36 22° WNW 18:40:51 10° N visible
22 Apr 3.6 02:57:16 10° NNW 03:01:18 46° ENE 03:05:17 10° SE visible
22 Apr 5.6 18:33:05 10° W 18:35:48 17° NW 18:38:33 10° NNW visible
23 Apr 2.9 02:55:17 10° NNW 02:59:26 65° ENE 03:03:32 10° SSE visible
23 Apr 5.9 18:32:06 10° W 18:34:03 13° NW 18:35:59 10° NNW visible
24 Apr 2.4 02:53:21 10° NNW 02:57:32 90° ENE 03:01:40 10° SSE visible
25 Apr 5.9 01:15:49 10° NNE 01:17:09 11° NE 01:18:29 10° ENE visible
25 Apr 2.3 02:51:29 10° NNW 02:55:37 65° WSW 02:59:42 10° SSE visible
26 Apr 5.6 01:13:00 10° NNE 01:15:24 15° NE 01:17:47 10° E visible
26 Apr 2.6 02:49:41 10° NW 02:53:40 46° WSW 02:57:38 10° S visible
27 Apr 5.1 01:10:35 10° N 01:13:38 19° ENE 01:16:38 10° ESE visible
27 Apr 3.0 02:47:58 10° NW 02:51:42 33° WSW 02:55:26 10° S visible
28 Apr 4.6 01:08:21 10° N 01:11:49 25° ENE 01:15:16 10° ESE visible
28 Apr 3.4 02:46:21 10° NW 02:49:44 24° WSW 02:53:05 10° SSW visible
29 Apr 4.1 01:06:12 10° N 01:09:59 33° ENE 01:13:45 10° SE visible
29 Apr 3.8 02:44:53 10° WNW 02:47:44 18° WSW 02:50:33 10° SSW visible
